Time,TemperatureF,DewpointF,PressureIn,WindDirection,WindDirectionDegrees,WindSpeedMPH,WindSpeedGustMPH,Humidity,HourlyPrecipIn,Conditions,Clouds,dailyrainin,SoftwareType,DateUTC
2013-11-30 00:00:00,39.7,33.7,30.22,NNE,24,0.0,0.0,79,0.00,,,0.00,VWS V14.00,2013-11-30 07:00:00,
2013-11-30 00:01:00,40.6,34.9,30.22,NW,321,0.0,0.0,80,0.00,,,0.00,VWS V14.00,2013-11-30 07:01:00,
2013-11-30 00:06:00,40.7,35.0,30.22,NW,321,0.0,0.0,80,0.00,,,0.00,VWS V14.00,2013-11-30 07:06:00,
2013-11-30 00:10:00,39.5,33.5,30.22,NNE,24,0.0,0.0,79,0.00,,,0.00,VWS V14.00,2013-11-30 07:10:00,
2013-11-30 00:11:00,40.7,34.7,30.22,NW,321,0.0,1.0,79,0.00,,,0.00,VWS V14.00,2013-11-30 07:11:00,
2013-11-30 00:16:00,40.8,34.8,30.22,NW,321,0.0,0.0,79,0.00,,,0.00,VWS V14.00,2013-11-30 07:16:00,
2013-11-30 00:20:00,39.3,33.7,30.22,North,355,0.0,2.0,80,0.00,,,0.00,VWS V14.00,2013-11-30 07:20:00,
2013-11-30 00:21:00,40.8,34.8,30.22,NW,321,0.0,0.0,79,0.00,,,0.00,VWS V14.00,2013-11-30 07:21:00,
2013-11-30 00:26:00,40.8,34.5,30.22,NW,321,0.0,1.0,78,0.00,,,0.00,VWS V14.00,2013-11-30 07:26:00,
2013-11-30 00:30:00,39.5,33.8,30.22,North,355,0.0,0.0,80,0.00,,,0.00,VWS V14.00,2013-11-30 07:30:00,
2013-11-30 00:31:00,40.8,34.5,30.21,NW,321,0.0,0.0,78,0.00,,,0.00,VWS V14.00,2013-11-30 07:31:00,
2013-11-30 00:36:00,40.7,34.4,30.21,NW,321,0.0,0.0,78,0.00,,,0.00,VWS V14.00,2013-11-30 07:36:00,
2013-11-30 00:40:00,39.7,34.4,30.22,North,355,0.0,1.0,81,0.00,,,0.00,VWS V14.00,2013-11-30 07:40:00,
2013-11-30 00:41:00,40.6,34.0,30.21,NW,321,0.0,0.0,77,0.00,,,0.00,VWS V14.00,2013-11-30 07:41:00,
2013-11-30 00:46:00,40.5,33.9,30.21,NW,321,0.0,0.0,77,0.00,,,0.00,VWS V14.00,2013-11-30 07:46:00,
2013-11-30 00:50:00,40.2,34.8,30.21,NW,321,0.0,2.0,81,0.00,,,0.00,VWS V14.00,2013-11-30 07:50:00,
2013-11-30 00:51:00,40.3,33.7,30.21,NW,321,0.0,0.0,77,0.00,,,0.00,VWS V14.00,2013-11-30 07:51:00,
2013-11-30 00:56:00,40.1,33.8,30.21,NW,321,1.0,1.0,78,0.00,,,0.00,VWS V14.00,2013-11-30 07:56:00,
2013-11-30 01:00:00,40.6,34.9,30.22,NW,321,0.0,0.0,80,0.00,,,0.00,VWS V14.00,2013-11-30 08:00:00,
2013-11-30 01:01:00,39.7,33.4,30.21,NW,321,0.0,0.0,78,0.00,,,0.00,VWS V14.00,2013-11-30 08:01:00,
2013-11-30 01:06:00,39.5,33.2,30.21,NW,321,0.0,0.0,78,0.00,,,0.00,VWS V14.00,2013-11-30 08:06:00,
2013-11-30 01:10:00,40.7,35.0,30.22,NW,321,0.0,0.0,80,0.00,,,0.00,VWS V14.00,2013-11-30 08:10:00,
2013-11-30 01:11:00,39.4,33.1,30.21,NW,321,0.0,0.0,78,0.00,,,0.00,VWS V14.00,2013-11-30 08:11:00,
2013-11-30 01:16:00,39.2,33.2,30.21,NW,321,0.0,0.0,79,0.00,,,0.00,VWS V14.00,2013-11-30 08:16:00,
2013-11-30 01:20:00,40.8,34.8,30.22,NW,321,0.0,0.0,79,0.00,,,0.00,VWS V14.00,2013-11-30 08:20:00,
2013-11-30 01:21:00,38.7,32.4,30.21,NW,321,0.0,1.0,78,0.00,,,0.00,VWS V14.00,2013-11-30 08:21:00,
2013-11-30 01:26:00,38.4,32.5,30.21,NW,321,0.0,0.0,79,0.00,,,0.00,VWS V14.00,2013-11-30 08:26:00,
2013-11-30 01:30:00,40.8,34.5,30.21,NW,321,0.0,1.0,78,0.00,,,0.00,VWS V14.00,2013-11-30 08:30:00,
2013-11-30 01:31:00,38.2,32.3,30.21,NW,321,0.0,0.0,79,0.00,,,0.00,VWS V14.00,2013-11-30 08:31:00,
2013-11-30 01:36:00,38.1,32.5,30.21,NW,321,0.0,0.0,80,0.00,,,0.00,VWS V14.00,2013-11-30 08:36:00,
2013-11-30 01:40:00,40.6,34.0,30.21,NW,321,0.0,0.0,77,0.00,,,0.00,VWS V14.00,2013-11-30 08:40:00,
2013-11-30 01:41:00,38.0,32.4,30.21,NW,321,0.0,0.0,80,0.00,,,0.00,VWS V14.00,2013-11-30 08:41:00,
2013-11-30 01:46:00,37.9,32.3,30.22,NW,321,0.0,0.0,80,0.00,,,0.00,VWS V14.00,2013-11-30 08:46:00,
2013-11-30 01:50:00,40.3,33.7,30.21,NW,321,0.0,0.0,77,0.00,,,0.00,VWS V14.00,2013-11-30 08:50:00,
2013-11-30 01:51:00,37.8,32.2,30.22,NW,321,0.0,0.0,80,0.00,,,0.00,VWS V14.00,2013-11-30 08:51:00,
2013-11-30 01:56:00,37.7,32.1,30.22,NW,321,0.0,0.0,80,0.00,,,0.00,VWS V14.00,2013-11-30 08:56:00,
2013-11-30 02:00:00,39.7,33.4,30.21,NW,321,0.0,0.0,78,0.00,,,0.00,VWS V14.00,2013-11-30 09:00:00,
2013-11-30 02:01:00,37.7,32.4,30.22,NW,321,0.0,0.0,81,0.00,,,0.00,VWS V14.00,2013-11-30 09:01:00,
2013-11-30 02:06:00,37.6,32.3,30.22,NW,321,0.0,0.0,81,0.00,,,0.00,VWS V14.00,2013-11-30 09:06:00,
2013-11-30 02:10:00,39.4,33.1,30.21,NW,321,0.0,0.0,78,0.00,,,0.00,VWS V14.00,2013-11-30 09:10:00,
2013-11-30 02:11:00,37.5,32.2,30.22,NW,321,0.0,0.0,81,0.00,,,0.00,VWS V14.00,2013-11-30 09:11:00,
2013-11-30 02:16:00,37.4,32.1,30.22,NW,321,0.0,0.0,81,0.00,,,0.00,VWS V14.00,2013-11-30 09:16:00,
2013-11-30 02:20:00,38.8,32.5,30.21,NW,321,0.0,1.0,78,0.00,,,0.00,VWS V14.00,2013-11-30 09:20:00,
2013-11-30 02:21:00,37.3,32.0,30.22,NW,321,0.0,0.0,81,0.00,,,0.00,VWS V14.00,2013-11-30 09:21:00,
2013-11-30 02:26:00,37.1,31.8,30.22,NW,321,0.0,0.0,81,0.00,,,0.00,VWS V14.00,2013-11-30 09:26:00,
2013-11-30 02:30:00,38.2,32.3,30.21,NW,321,0.0,0.0,79,0.00,,,0.00,VWS V14.00,2013-11-30 09:30:00,
2013-11-30 02:31:00,36.9,31.9,30.22,NW,321,0.0,0.0,82,0.00,,,0.00,VWS V14.00,2013-11-30 09:31:00,
2013-11-30 02:36:00,36.7,31.7,30.22,NW,321,0.0,0.0,82,0.00,,,0.00,VWS V14.00,2013-11-30 09:36:00,
2013-11-30 02:40:00,38.0,32.4,30.21,NW,321,0.0,0.0,80,0.00,,,0.00,VWS V14.00,2013-11-30 09:40:00,
2013-11-30 02:41:00,36.6,31.9,30.23,NW,321,0.0,0.0,83,0.00,,,0.00,VWS V14.00,2013-11-30 09:41:00,
2013-11-30 02:46:00,36.5,31.8,30.22,NW,321,0.0,0.0,83,0.00,,,0.00,VWS V14.00,2013-11-30 09:46:00,
2013-11-30 02:50:00,37.8,32.2,30.22,NW,321,0.0,0.0,80,0.00,,,0.00,VWS V14.00,2013-11-30 09:50:00,
2013-11-30 02:51:00,36.4,31.7,30.23,NW,321,0.0,0.0,83,0.00,,,0.00,VWS V14.00,2013-11-30 09:51:00,
2013-11-30 02:56:00,36.2,31.5,30.23,NW,321,0.0,0.0,83,0.00,,,0.00,VWS V14.00,2013-11-30 09:56:00,
2013-11-30 03:00:00,37.7,32.4,30.22,NW,321,0.0,0.0,81,0.00,,,0.00,VWS V14.00,2013-11-30 10:00:00,
2013-11-30 03:01:00,36.0,31.4,30.22,NW,321,0.0,0.0,83,0.00,,,0.00,VWS V14.00,2013-11-30 10:01:00,
2013-11-30 03:06:00,35.6,31.0,30.22,NW,321,0.0,2.0,83,0.00,,,0.00,VWS V14.00,2013-11-30 10:06:00,
2013-11-30 03:10:00,37.5,32.2,30.22,NW,321,0.0,0.0,81,0.00,,,0.00,VWS V14.00,2013-11-30 10:10:00,
2013-11-30 03:11:00,35.5,30.9,30.23,NW,321,0.0,0.0,83,0.00,,,0.00,VWS V14.00,2013-11-30 10:11:00,
2013-11-30 03:16:00,35.4,30.8,30.23,NW,321,0.0,0.0,83,0.00,,,0.00,VWS V14.00,2013-11-30 10:16:00,
2013-11-30 03:20:00,37.3,32.0,30.22,NW,321,0.0,0.0,81,0.00,,,0.00,VWS V14.00,2013-11-30 10:20:00,
2013-11-30 03:21:00,35.3,30.7,30.23,NW,321,0.0,0.0,83,0.00,,,0.00,VWS V14.00,2013-11-30 10:21:00,
2013-11-30 03:26:00,35.2,30.6,30.23,NW,321,0.0,0.0,83,0.00,,,0.00,VWS V14.00,2013-11-30 10:26:00,
2013-11-30 03:30:00,37.0,32.0,30.22,NW,321,0.0,0.0,82,0.00,,,0.00,VWS V14.00,2013-11-30 10:30:00,
2013-11-30 03:31:00,35.1,30.5,30.23,NW,321,0.0,0.0,83,0.00,,,0.00,VWS V14.00,2013-11-30 10:31:00,
2013-11-30 03:36:00,34.8,30.5,30.23,NW,321,0.0,0.0,84,0.00,,,0.00,VWS V14.00,2013-11-30 10:36:00,
2013-11-30 03:40:00,36.7,32.0,30.22,NW,321,0.0,1.0,83,0.00,,,0.00,VWS V14.00,2013-11-30 10:40:00,
2013-11-30 03:41:00,34.4,29.8,30.23,NW,321,0.0,0.0,83,0.00,,,0.00,VWS V14.00,2013-11-30 10:41:00,
2013-11-30 03:46:00,34.3,30.0,30.22,NW,321,0.0,0.0,84,0.00,,,0.00,VWS V14.00,2013-11-30 10:46:00,
2013-11-30 03:50:00,36.4,31.7,30.23,NW,321,0.0,0.0,83,0.00,,,0.00,VWS V14.00,2013-11-30 10:50:00,
2013-11-30 03:51:00,34.2,29.9,30.22,NW,321,0.0,0.0,84,0.00,,,0.00,VWS V14.00,2013-11-30 10:51:00,
2013-11-30 03:56:00,34.2,29.9,30.22,NW,321,0.0,0.0,84,0.00,,,0.00,VWS V14.00,2013-11-30 10:56:00,
2013-11-30 04:00:00,36.0,31.4,30.22,NW,321,0.0,0.0,83,0.00,,,0.00,VWS V14.00,2013-11-30 11:00:00,
2013-11-30 04:01:00,34.1,29.8,30.23,NW,321,0.0,0.0,84,0.00,,,0.00,VWS V14.00,2013-11-30 11:01:00,
2013-11-30 04:06:00,33.9,29.9,30.23,NW,321,0.0,0.0,85,0.00,,,0.00,VWS V14.00,2013-11-30 11:06:00,
2013-11-30 04:10:00,35.5,30.9,30.23,NW,321,0.0,0.0,83,0.00,,,0.00,VWS V14.00,2013-11-30 11:10:00,
2013-11-30 04:11:00,34.1,30.1,30.23,NW,321,0.0,0.0,85,0.00,,,0.00,VWS V14.00,2013-11-30 11:11:00,
2013-11-30 04:16:00,34.2,30.2,30.22,NW,321,0.0,0.0,85,0.00,,,0.00,VWS V14.00,2013-11-30 11:16:00,
2013-11-30 04:20:00,35.3,30.7,30.23,NW,321,0.0,0.0,83,0.00,,,0.00,VWS V14.00,2013-11-30 11:20:00,
2013-11-30 04:21:00,34.1,30.1,30.22,NW,321,0.0,0.0,85,0.00,,,0.00,VWS V14.00,2013-11-30 11:21:00,
2013-11-30 04:26:00,34.1,30.1,30.22,NW,321,0.0,0.0,85,0.00,,,0.00,VWS V14.00,2013-11-30 11:26:00,
2013-11-30 04:30:00,35.1,30.5,30.23,NW,321,0.0,0.0,83,0.00,,,0.00,VWS V14.00,2013-11-30 11:30:00,
2013-11-30 04:31:00,33.9,29.9,30.22,NW,321,0.0,0.0,85,0.00,,,0.00,VWS V14.00,2013-11-30 11:31:00,
2013-11-30 04:36:00,33.7,30.0,30.22,NW,321,0.0,0.0,86,0.00,,,0.00,VWS V14.00,2013-11-30 11:36:00,
2013-11-30 04:40:00,34.4,29.8,30.23,NW,321,0.0,0.0,83,0.00,,,0.00,VWS V14.00,2013-11-30 11:40:00,
2013-11-30 04:41:00,33.5,29.5,30.22,NW,321,0.0,1.0,85,0.00,,,0.00,VWS V14.00,2013-11-30 11:41:00,
2013-11-30 04:46:00,33.6,29.9,30.22,NW,321,0.0,0.0,86,0.00,,,0.00,VWS V14.00,2013-11-30 11:46:00,
2013-11-30 04:50:00,34.2,29.9,30.22,NW,321,0.0,0.0,84,0.00,,,0.00,VWS V14.00,2013-11-30 11:50:00,
2013-11-30 04:51:00,33.8,30.4,30.22,NW,321,0.0,1.0,87,0.00,,,0.00,VWS V14.00,2013-11-30 11:51:00,
2013-11-30 04:56:00,33.7,30.0,30.22,NW,321,0.0,1.0,86,0.00,,,0.00,VWS V14.00,2013-11-30 11:56:00,
2013-11-30 05:00:00,34.1,29.8,30.22,NW,321,0.0,0.0,84,0.00,,,0.00,VWS V14.00,2013-11-30 12:00:00,
2013-11-30 05:01:00,33.6,29.9,30.22,NW,321,0.0,0.0,86,0.00,,,0.00,VWS V14.00,2013-11-30 12:01:00,
2013-11-30 05:06:00,33.6,30.1,30.22,NW,321,0.0,0.0,87,0.00,,,0.00,VWS V14.00,2013-11-30 12:06:00,
2013-11-30 05:10:00,34.1,30.1,30.22,NW,321,0.0,0.0,85,0.00,,,0.00,VWS V14.00,2013-11-30 12:10:00,
2013-11-30 05:11:00,33.6,29.9,30.22,NW,321,0.0,0.0,86,0.00,,,0.00,VWS V14.00,2013-11-30 12:11:00,
2013-11-30 05:16:00,33.6,29.9,30.22,NW,321,0.0,0.0,86,0.00,,,0.00,VWS V14.00,2013-11-30 12:16:00,
2013-11-30 05:20:00,34.2,30.2,30.22,NW,321,0.0,0.0,85,0.00,,,0.00,VWS V14.00,2013-11-30 12:20:00,
2013-11-30 05:21:00,33.3,29.6,30.22,NW,321,0.0,0.0,86,0.00,,,0.00,VWS V14.00,2013-11-30 12:21:00,
2013-11-30 05:26:00,33.0,29.3,30.22,NW,321,0.0,1.0,86,0.00,,,0.00,VWS V14.00,2013-11-30 12:26:00,
2013-11-30 05:30:00,33.9,29.9,30.22,NW,321,0.0,0.0,85,0.00,,,0.00,VWS V14.00,2013-11-30 12:30:00,
2013-11-30 05:31:00,32.8,29.1,30.22,NW,321,0.0,0.0,86,0.00,,,0.00,VWS V14.00,2013-11-30 12:31:00,
2013-11-30 05:36:00,32.8,29.4,30.22,NW,321,0.0,1.0,87,0.00,,,0.00,VWS V14.00,2013-11-30 12:36:00,
2013-11-30 05:40:00,33.5,29.5,30.22,NW,321,0.0,1.0,85,0.00,,,0.00,VWS V14.00,2013-11-30 12:40:00,
2013-11-30 05:41:00,32.9,29.5,30.22,NW,321,0.0,0.0,87,0.00,,,0.00,VWS V14.00,2013-11-30 12:41:00,
2013-11-30 05:46:00,32.4,28.7,30.22,NW,321,0.0,0.0,86,0.00,,,0.00,VWS V14.00,2013-11-30 12:46:00,
2013-11-30 05:50:00,33.8,30.4,30.22,NW,321,0.0,1.0,87,0.00,,,0.00,VWS V14.00,2013-11-30 12:50:00,
2013-11-30 05:51:00,32.4,29.0,30.22,NW,321,0.0,1.0,87,0.00,,,0.00,VWS V14.00,2013-11-30 12:51:00,
2013-11-30 05:56:00,32.3,28.9,30.22,NW,321,0.0,0.0,87,0.00,,,0.00,VWS V14.00,2013-11-30 12:56:00,
2013-11-30 06:00:00,33.6,29.9,30.22,NW,321,0.0,0.0,86,0.00,,,0.00,VWS V14.00,2013-11-30 13:00:00,
2013-11-30 06:01:00,32.3,28.9,30.22,NW,321,0.0,0.0,87,0.00,,,0.00,VWS V14.00,2013-11-30 13:01:00,
2013-11-30 06:06:00,32.3,28.9,30.22,NW,321,0.0,0.0,87,0.00,,,0.00,VWS V14.00,2013-11-30 13:06:00,
2013-11-30 06:10:00,33.6,29.9,30.22,NW,321,0.0,0.0,86,0.00,,,0.00,VWS V14.00,2013-11-30 13:10:00,
2013-11-30 06:11:00,32.3,28.9,30.23,NW,321,1.0,1.0,87,0.00,,,0.00,VWS V14.00,2013-11-30 13:11:00,
2013-11-30 06:16:00,31.8,28.4,30.22,ENE,65,0.0,1.0,87,0.00,,,0.00,VWS V14.00,2013-11-30 13:16:00,
2013-11-30 06:20:00,33.3,29.6,30.22,NW,321,0.0,0.0,86,0.00,,,0.00,VWS V14.00,2013-11-30 13:20:00,
2013-11-30 06:21:00,31.8,28.4,30.22,ENE,64,0.0,0.0,87,0.00,,,0.00,VWS V14.00,2013-11-30 13:21:00,
2013-11-30 06:26:00,31.8,28.4,30.23,ENE,64,0.0,0.0,87,0.00,,,0.00,VWS V14.00,2013-11-30 13:26:00,
2013-11-30 06:30:00,32.8,29.1,30.22,NW,321,0.0,0.0,86,0.00,,,0.00,VWS V14.00,2013-11-30 13:30:00,
2013-11-30 06:31:00,31.8,28.4,30.23,ENE,64,0.0,0.0,87,0.00,,,0.00,VWS V14.00,2013-11-30 13:31:00,
2013-11-30 06:36:00,31.6,28.2,30.23,ENE,65,0.0,0.0,87,0.00,,,0.00,VWS V14.00,2013-11-30 13:36:00,
2013-11-30 06:40:00,32.9,29.5,30.22,NW,321,0.0,0.0,87,0.00,,,0.00,VWS V14.00,2013-11-30 13:40:00,
2013-11-30 06:41:00,31.6,28.2,30.23,ENE,65,0.0,0.0,87,0.00,,,0.00,VWS V14.00,2013-11-30 13:41:00,
2013-11-30 06:46:00,31.6,28.2,30.23,ENE,65,0.0,1.0,87,0.00,,,0.00,VWS V14.00,2013-11-30 13:46:00,
2013-11-30 06:50:00,32.4,29.0,30.22,NW,321,0.0,1.0,87,0.00,,,0.00,VWS V14.00,2013-11-30 13:50:00,
2013-11-30 06:51:00,31.4,28.0,30.23,ENE,64,0.0,0.0,87,0.00,,,0.00,VWS V14.00,2013-11-30 13:51:00,
2013-11-30 06:56:00,31.5,28.4,30.23,ENE,65,0.0,0.0,88,0.00,,,0.00,VWS V14.00,2013-11-30 13:56:00,
2013-11-30 07:00:00,32.3,28.9,30.22,NW,321,0.0,0.0,87,0.00,,,0.00,VWS V14.00,2013-11-30 14:00:00,
2013-11-30 07:01:00,31.6,28.5,30.23,ENE,65,0.0,0.0,88,0.00,,,0.00,VWS V14.00,2013-11-30 14:01:00,
2013-11-30 07:05:00,31.5,28.4,30.24,ENE,64,0.0,0.0,88,0.00,,,0.00,VWS V14.00,2013-11-30 14:05:00,
2013-11-30 07:10:00,31.3,27.9,30.24,ENE,65,1.0,2.0,87,0.00,,,0.00,VWS V14.00,2013-11-30 14:10:00,
2013-11-30 07:15:00,31.2,28.1,30.24,ENE,65,0.0,2.0,88,0.00,,,0.00,VWS V14.00,2013-11-30 14:15:00,
2013-11-30 07:20:00,31.1,27.7,30.24,ENE,65,0.0,0.0,87,0.00,,,0.00,VWS V14.00,2013-11-30 14:20:00,
2013-11-30 07:25:00,31.0,27.9,30.24,ENE,65,0.0,0.0,88,0.00,,,0.00,VWS V14.00,2013-11-30 14:25:00,
2013-11-30 07:30:00,31.0,27.9,30.24,ENE,64,0.0,0.0,88,0.00,,,0.00,VWS V14.00,2013-11-30 14:30:00,
2013-11-30 07:35:00,30.9,27.8,30.25,ENE,65,0.0,0.0,88,0.00,,,0.00,VWS V14.00,2013-11-30 14:35:00,
2013-11-30 07:40:00,31.3,28.2,30.25,ENE,65,0.0,0.0,88,0.00,,,0.00,VWS V14.00,2013-11-30 14:40:00,
2013-11-30 07:45:00,31.7,28.6,30.25,ENE,65,0.0,0.0,88,0.00,,,0.00,VWS V14.00,2013-11-30 14:45:00,
2013-11-30 07:50:00,32.0,29.1,30.25,ENE,64,0.0,0.0,89,0.00,,,0.00,VWS V14.00,2013-11-30 14:50:00,
2013-11-30 07:55:00,32.3,29.4,30.25,ENE,65,0.0,1.0,89,0.00,,,0.00,VWS V14.00,2013-11-30 14:55:00,
2013-11-30 08:00:00,32.7,29.8,30.25,ENE,65,0.0,0.0,89,0.00,,,0.00,VWS V14.00,2013-11-30 15:00:00,
2013-11-30 08:05:00,32.9,30.0,30.25,ENE,64,0.0,1.0,89,0.00,,,0.00,VWS V14.00,2013-11-30 15:05:00,
2013-11-30 08:10:00,33.0,30.1,30.25,ENE,64,0.0,0.0,89,0.00,,,0.00,VWS V14.00,2013-11-30 15:10:00,
2013-11-30 08:15:00,33.8,30.9,30.26,ENE,65,0.0,1.0,89,0.00,,,0.00,VWS V14.00,2013-11-30 15:15:00,
2013-11-30 08:20:00,34.4,31.5,30.26,ENE,65,0.0,0.0,89,0.00,,,0.00,VWS V14.00,2013-11-30 15:20:00,
2013-11-30 08:25:00,35.4,32.5,30.26,ENE,65,0.0,0.0,89,0.00,,,0.00,VWS V14.00,2013-11-30 15:25:00,
2013-11-30 08:30:00,36.2,33.3,30.26,ENE,64,0.0,0.0,89,0.00,,,0.00,VWS V14.00,2013-11-30 15:30:00,
2013-11-30 08:35:00,36.3,33.1,30.26,ENE,65,0.0,0.0,88,0.00,,,0.00,VWS V14.00,2013-11-30 15:35:00,
2013-11-30 08:40:00,36.8,33.3,30.26,ENE,65,0.0,0.0,87,0.00,,,0.00,VWS V14.00,2013-11-30 15:40:00,
2013-11-30 08:45:00,37.2,33.1,30.26,ENE,65,0.0,0.0,85,0.00,,,0.00,VWS V14.00,2013-11-30 15:45:00,
2013-11-30 08:50:00,38.1,34.0,30.26,ENE,64,0.0,0.0,85,0.00,,,0.00,VWS V14.00,2013-11-30 15:50:00,
2013-11-30 08:55:00,38.8,33.8,30.26,ENE,65,0.0,0.0,82,0.00,,,0.00,VWS V14.00,2013-11-30 15:55:00,
2013-11-30 09:00:00,39.4,34.4,30.26,ENE,65,0.0,0.0,82,0.00,,,0.00,VWS V14.00,2013-11-30 16:00:00,
2013-11-30 09:05:00,40.2,34.8,30.26,ENE,65,0.0,1.0,81,0.00,,,0.00,VWS V14.00,2013-11-30 16:05:00,
2013-11-30 09:10:00,40.7,35.0,30.26,ESE,109,0.0,1.0,80,0.00,,,0.00,VWS V14.00,2013-11-30 16:10:00,
2013-11-30 09:15:00,41.2,34.9,30.26,ESE,109,0.0,1.0,78,0.00,,,0.00,VWS V14.00,2013-11-30 16:15:00,
2013-11-30 09:20:00,41.7,35.4,30.26,ESE,109,0.0,1.0,78,0.00,,,0.00,VWS V14.00,2013-11-30 16:20:00,
2013-11-30 09:25:00,42.2,35.2,30.26,ESE,109,0.0,1.0,76,0.00,,,0.00,VWS V14.00,2013-11-30 16:25:00,
2013-11-30 09:30:00,42.5,34.8,30.26,ESE,109,0.0,0.0,74,0.00,,,0.00,VWS V14.00,2013-11-30 16:30:00,
2013-11-30 09:35:00,43.0,35.6,30.26,ESE,109,0.0,0.0,75,0.00,,,0.00,VWS V14.00,2013-11-30 16:35:00,
2013-11-30 09:40:00,43.6,35.5,30.26,ESE,111,0.0,1.0,73,0.00,,,0.00,VWS V14.00,2013-11-30 16:40:00,
2013-11-30 09:45:00,43.9,35.5,30.26,ESE,110,0.0,0.0,72,0.00,,,0.00,VWS V14.00,2013-11-30 16:45:00,
2013-11-30 09:50:00,44.5,35.7,30.26,ESE,111,0.0,1.0,71,0.00,,,0.00,VWS V14.00,2013-11-30 16:50:00,
2013-11-30 09:55:00,45.4,36.9,30.26,ESE,110,0.0,1.0,72,0.00,,,0.00,VWS V14.00,2013-11-30 16:55:00,
2013-11-30 10:00:00,46.0,36.4,30.26,South,171,0.0,2.0,69,0.00,,,0.00,VWS V14.00,2013-11-30 17:00:00,
2013-11-30 10:05:00,46.3,36.3,30.25,South,171,0.0,1.0,68,0.00,,,0.00,VWS V14.00,2013-11-30 17:05:00,
2013-11-30 10:10:00,47.0,37.7,30.25,South,171,1.0,3.0,70,0.00,,,0.00,VWS V14.00,2013-11-30 17:10:00,
2013-11-30 10:15:00,48.3,36.3,30.25,SW,234,0.0,2.0,63,0.00,,,0.00,VWS V14.00,2013-11-30 17:15:00,
2013-11-30 10:20:00,49.2,35.9,30.25,WSW,257,0.0,1.0,60,0.00,,,0.00,VWS V14.00,2013-11-30 17:20:00,
2013-11-30 10:25:00,50.0,36.2,30.25,West,267,0.0,1.0,59,0.00,,,0.00,VWS V14.00,2013-11-30 17:25:00,
2013-11-30 10:30:00,50.2,35.6,30.24,WNW,292,0.0,2.0,57,0.00,,,0.00,VWS V14.00,2013-11-30 17:30:00,
2013-11-30 10:35:00,50.4,35.3,30.24,WNW,293,0.0,3.0,56,0.00,,,0.00,VWS V14.00,2013-11-30 17:35:00,
2013-11-30 10:40:00,50.7,35.1,30.24,WNW,292,0.0,3.0,55,0.00,,,0.00,VWS V14.00,2013-11-30 17:40:00,
2013-11-30 10:45:00,51.4,35.8,30.24,NW,304,0.0,3.0,55,0.00,,,0.00,VWS V14.00,2013-11-30 17:45:00,
2013-11-30 10:50:00,52.1,36.0,30.24,NW,325,2.0,3.0,54,0.00,,,0.00,VWS V14.00,2013-11-30 17:50:00,
2013-11-30 10:55:00,52.1,36.0,30.24,NW,322,1.0,5.0,54,0.00,,,0.00,VWS V14.00,2013-11-30 17:55:00,
2013-11-30 11:00:00,52.4,35.8,30.23,West,277,2.0,4.0,53,0.00,,,0.00,VWS V14.00,2013-11-30 18:00:00,
2013-11-30 11:05:00,52.6,35.5,30.23,NNE,29,1.0,3.0,52,0.00,,,0.00,VWS V14.00,2013-11-30 18:05:00,
2013-11-30 11:10:00,52.8,35.7,30.23,NNW,338,0.0,2.0,52,0.00,,,0.00,VWS V14.00,2013-11-30 18:10:00,
2013-11-30 11:15:00,53.4,35.7,30.22,West,265,3.0,3.0,51,0.00,,,0.00,VWS V14.00,2013-11-30 18:15:00,
2013-11-30 11:20:00,53.3,36.1,30.22,WNW,294,0.0,1.0,52,0.00,,,0.00,VWS V14.00,2013-11-30 18:20:00,
2013-11-30 11:25:00,53.6,35.9,30.22,West,262,4.0,4.0,51,0.00,,,0.00,VWS V14.00,2013-11-30 18:25:00,
2013-11-30 11:30:00,53.8,35.6,30.21,WSW,254,0.0,3.0,50,0.00,,,0.00,VWS V14.00,2013-11-30 18:30:00,
2013-11-30 11:35:00,54.3,36.1,30.21,SW,225,0.0,1.0,50,0.00,,,0.00,VWS V14.00,2013-11-30 18:35:00,
2013-11-30 11:40:00,55.4,38.1,30.21,SW,223,0.0,2.0,52,0.00,,,0.00,VWS V14.00,2013-11-30 18:40:00,
2013-11-30 11:45:00,55.6,36.8,30.20,WSW,246,0.0,2.0,49,0.00,,,0.00,VWS V14.00,2013-11-30 18:45:00,
2013-11-30 11:50:00,55.2,35.9,30.20,SW,230,0.0,1.0,48,0.00,,,0.00,VWS V14.00,2013-11-30 18:50:00,
2013-11-30 11:55:00,56.0,36.6,30.20,SSW,195,0.0,3.0,48,0.00,,,0.00,VWS V14.00,2013-11-30 18:55:00,
2013-11-30 12:00:00,55.6,35.2,30.19,SSW,196,0.0,0.0,46,0.00,,,0.00,VWS V14.00,2013-11-30 19:00:00,
2013-11-30 12:05:00,55.8,35.9,30.19,SSW,196,0.0,1.0,47,0.00,,,0.00,VWS V14.00,2013-11-30 19:05:00,
2013-11-30 12:10:00,56.7,37.2,30.18,East,88,2.0,2.0,48,0.00,,,0.00,VWS V14.00,2013-11-30 19:10:00,
2013-11-30 12:15:00,56.6,37.2,30.18,East,85,0.0,1.0,48,0.00,,,0.00,VWS V14.00,2013-11-30 19:15:00,
2013-11-30 12:20:00,57.6,36.4,30.18,ESE,111,0.0,3.0,45,0.00,,,0.00,VWS V14.00,2013-11-30 19:20:00,
2013-11-30 12:25:00,57.5,36.3,30.17,SSE,153,0.0,1.0,45,0.00,,,0.00,VWS V14.00,2013-11-30 19:25:00,
2013-11-30 12:30:00,57.7,37.1,30.17,SW,214,0.0,2.0,46,0.00,,,0.00,VWS V14.00,2013-11-30 19:30:00,
2013-11-30 12:35:00,58.5,36.7,30.17,SW,214,0.0,2.0,44,0.00,,,0.00,VWS V14.00,2013-11-30 19:35:00,
2013-11-30 12:40:00,58.4,36.6,30.17,South,181,0.0,2.0,44,0.00,,,0.00,VWS V14.00,2013-11-30 19:40:00,
2013-11-30 12:45:00,59.0,36.6,30.16,South,190,0.0,3.0,43,0.00,,,0.00,VWS V14.00,2013-11-30 19:45:00,
2013-11-30 12:50:00,59.0,37.1,30.16,South,190,1.0,1.0,44,0.00,,,0.00,VWS V14.00,2013-11-30 19:50:00,
2013-11-30 12:55:00,59.0,37.1,30.16,SE,144,1.0,3.0,44,0.00,,,0.00,VWS V14.00,2013-11-30 19:55:00,
2013-11-30 13:00:00,59.0,37.1,30.15,East,92,0.0,2.0,44,0.00,,,0.00,VWS V14.00,2013-11-30 20:00:00,
2013-11-30 13:05:00,59.0,37.1,30.14,ENE,62,1.0,2.0,44,0.00,,,0.00,VWS V14.00,2013-11-30 20:05:00,
2013-11-30 13:10:00,59.3,36.2,30.14,NNE,19,1.0,2.0,42,0.00,,,0.00,VWS V14.00,2013-11-30 20:10:00,
2013-11-30 13:15:00,59.7,36.6,30.14,WNW,294,1.0,3.0,42,0.00,,,0.00,VWS V14.00,2013-11-30 20:15:00,
2013-11-30 13:20:00,59.8,36.7,30.14,WNW,295,0.0,1.0,42,0.00,,,0.00,VWS V14.00,2013-11-30 20:20:00,
2013-11-30 13:25:00,60.2,38.2,30.14,SW,221,0.0,2.0,44,0.00,,,0.00,VWS V14.00,2013-11-30 20:25:00,
2013-11-30 13:30:00,60.8,37.0,30.13,South,191,1.0,3.0,41,0.00,,,0.00,VWS V14.00,2013-11-30 20:30:00,
2013-11-30 13:35:00,60.5,37.3,30.13,SW,222,0.0,1.0,42,0.00,,,0.00,VWS V14.00,2013-11-30 20:35:00,
2013-11-30 13:40:00,61.4,38.7,30.13,SW,217,1.0,3.0,43,0.00,,,0.00,VWS V14.00,2013-11-30 20:40:00,
2013-11-30 13:45:00,61.5,37.6,30.13,SSW,200,0.0,4.0,41,0.00,,,0.00,VWS V14.00,2013-11-30 20:45:00,
2013-11-30 13:50:00,61.7,38.4,30.12,SSW,192,0.0,4.0,42,0.00,,,0.00,VWS V14.00,2013-11-30 20:50:00,
2013-11-30 13:55:00,61.8,38.5,30.12,SSW,200,0.0,3.0,42,0.00,,,0.00,VWS V14.00,2013-11-30 20:55:00,
2013-11-30 14:00:00,62.0,38.0,30.12,SW,221,1.0,2.0,41,0.00,,,0.00,VWS V14.00,2013-11-30 21:00:00,
2013-11-30 14:05:00,61.9,39.8,30.12,SW,217,0.0,1.0,44,0.00,,,0.00,VWS V14.00,2013-11-30 21:05:00,
2013-11-30 14:10:00,61.9,38.0,30.12,ESE,106,1.0,3.0,41,0.00,,,0.00,VWS V14.00,2013-11-30 21:10:00,
2013-11-30 14:15:00,61.6,37.7,30.12,ESE,107,0.0,1.0,41,0.00,,,0.00,VWS V14.00,2013-11-30 21:15:00,
2013-11-30 14:20:00,61.8,37.9,30.11,SSW,197,1.0,3.0,41,0.00,,,0.00,VWS V14.00,2013-11-30 21:20:00,
2013-11-30 14:25:00,61.8,37.9,30.11,West,275,0.0,2.0,41,0.00,,,0.00,VWS V14.00,2013-11-30 21:25:00,
2013-11-30 14:30:00,62.0,37.4,30.10,West,275,0.0,1.0,40,0.00,,,0.00,VWS V14.00,2013-11-30 21:30:00,
2013-11-30 14:35:00,62.5,38.5,30.10,SW,234,0.0,1.0,41,0.00,,,0.00,VWS V14.00,2013-11-30 21:35:00,
2013-11-30 14:40:00,62.7,39.3,30.09,SSW,209,0.0,2.0,42,0.00,,,0.00,VWS V14.00,2013-11-30 21:40:00,
2013-11-30 14:45:00,62.8,38.1,30.09,SSW,209,0.0,1.0,40,0.00,,,0.00,VWS V14.00,2013-11-30 21:45:00,
2013-11-30 14:50:00,62.7,38.0,30.10,NW,307,0.0,1.0,40,0.00,,,0.00,VWS V14.00,2013-11-30 21:50:00,
2013-11-30 14:55:00,62.6,37.3,30.09,West,278,0.0,1.0,39,0.00,,,0.00,VWS V14.00,2013-11-30 21:55:00,
2013-11-30 15:00:00,62.7,37.4,30.09,NW,304,0.0,1.0,39,0.00,,,0.00,VWS V14.00,2013-11-30 22:00:00,
2013-11-30 15:05:00,62.5,38.5,30.09,SSW,202,2.0,3.0,41,0.00,,,0.00,VWS V14.00,2013-11-30 22:05:00,
2013-11-30 15:10:00,62.5,37.2,30.09,West,269,0.0,5.0,39,0.00,,,0.00,VWS V14.00,2013-11-30 22:10:00,
2013-11-30 15:15:00,62.5,37.2,30.09,WSW,255,1.0,4.0,39,0.00,,,0.00,VWS V14.00,2013-11-30 22:15:00,
2013-11-30 15:20:00,62.7,37.4,30.09,WNW,288,0.0,2.0,39,0.00,,,0.00,VWS V14.00,2013-11-30 22:20:00,
2013-11-30 15:25:00,62.8,37.5,30.09,SW,234,3.0,5.0,39,0.00,,,0.00,VWS V14.00,2013-11-30 22:25:00,
2013-11-30 15:30:00,62.8,36.8,30.09,WNW,287,0.0,5.0,38,0.00,,,0.00,VWS V14.00,2013-11-30 22:30:00,
2013-11-30 15:35:00,62.6,36.7,30.09,WSW,241,0.0,4.0,38,0.00,,,0.00,VWS V14.00,2013-11-30 22:35:00,
2013-11-30 15:40:00,62.5,37.2,30.09,WSW,250,2.0,3.0,39,0.00,,,0.00,VWS V14.00,2013-11-30 22:40:00,
2013-11-30 15:45:00,62.5,37.2,30.09,WSW,240,0.0,4.0,39,0.00,,,0.00,VWS V14.00,2013-11-30 22:45:00,
2013-11-30 15:50:00,62.5,37.2,30.09,West,271,0.0,3.0,39,0.00,,,0.00,VWS V14.00,2013-11-30 22:50:00,
2013-11-30 15:55:00,62.4,37.1,30.09,NW,309,0.0,3.0,39,0.00,,,0.00,VWS V14.00,2013-11-30 22:55:00,
2013-11-30 16:00:00,62.5,37.2,30.09,WSW,250,3.0,5.0,39,0.00,,,0.00,VWS V14.00,2013-11-30 23:00:00,
2013-11-30 16:05:00,62.5,37.2,30.09,West,269,0.0,3.0,39,0.00,,,0.00,VWS V14.00,2013-11-30 23:05:00,
2013-11-30 16:10:00,62.3,37.0,30.09,West,269,0.0,1.0,39,0.00,,,0.00,VWS V14.00,2013-11-30 23:10:00,
2013-11-30 16:15:00,62.2,37.0,30.09,West,269,0.0,0.0,39,0.00,,,0.00,VWS V14.00,2013-11-30 23:15:00,
2013-11-30 16:20:00,61.9,36.7,30.09,West,269,0.0,1.0,39,0.00,,,0.00,VWS V14.00,2013-11-30 23:20:00,
2013-11-30 16:25:00,61.8,36.6,30.09,West,269,0.0,1.0,39,0.00,,,0.00,VWS V14.00,2013-11-30 23:25:00,
2013-11-30 16:30:00,61.8,36.6,30.09,NW,308,0.0,1.0,39,0.00,,,0.00,VWS V14.00,2013-11-30 23:30:00,
2013-11-30 16:35:00,61.7,37.2,30.09,NW,307,0.0,0.0,40,0.00,,,0.00,VWS V14.00,2013-11-30 23:35:00,
2013-11-30 16:40:00,61.6,37.1,30.09,NW,307,0.0,0.0,40,0.00,,,0.00,VWS V14.00,2013-11-30 23:40:00,
2013-11-30 16:45:00,61.5,37.6,30.10,NW,307,0.0,0.0,41,0.00,,,0.00,VWS V14.00,2013-11-30 23:45:00,
2013-11-30 16:50:00,61.2,38.0,30.09,NW,308,0.0,0.0,42,0.00,,,0.00,VWS V14.00,2013-11-30 23:50:00,
2013-11-30 16:55:00,60.7,40.4,30.10,NW,308,0.0,0.0,47,0.00,,,0.00,VWS V14.00,2013-11-30 23:55:00,
2013-11-30 17:00:00,59.8,39.0,30.09,NW,308,0.0,0.0,46,0.00,,,0.00,VWS V14.00,2013-12-01 00:00:00,
2013-11-30 17:05:00,59.0,39.9,30.10,NW,307,0.0,0.0,49,0.00,,,0.00,VWS V14.00,2013-12-01 00:05:00,
2013-11-30 17:10:00,58.9,40.3,30.10,NW,307,0.0,0.0,50,0.00,,,0.00,VWS V14.00,2013-12-01 00:10:00,
2013-11-30 17:15:00,57.8,40.8,30.10,North,355,0.0,2.0,53,0.00,,,0.00,VWS V14.00,2013-12-01 00:15:00,
2013-11-30 17:20:00,57.0,40.5,30.10,North,355,0.0,1.0,54,0.00,,,0.00,VWS V14.00,2013-12-01 00:20:00,
2013-11-30 17:25:00,56.3,40.8,30.10,NNE,15,1.0,2.0,56,0.00,,,0.00,VWS V14.00,2013-12-01 00:25:00,
2013-11-30 17:30:00,55.3,40.3,30.10,NE,36,1.0,3.0,57,0.00,,,0.00,VWS V14.00,2013-12-01 00:30:00,
2013-11-30 17:35:00,54.7,40.2,30.10,NNE,31,3.0,4.0,58,0.00,,,0.00,VWS V14.00,2013-12-01 00:35:00,
2013-11-30 17:40:00,54.1,39.7,30.10,NNE,32,1.0,3.0,58,0.00,,,0.00,VWS V14.00,2013-12-01 00:40:00,
2013-11-30 17:45:00,53.8,39.8,30.10,NNE,32,0.0,1.0,59,0.00,,,0.00,VWS V14.00,2013-12-01 00:45:00,
2013-11-30 17:50:00,53.5,40.0,30.10,NNE,12,1.0,2.0,60,0.00,,,0.00,VWS V14.00,2013-12-01 00:50:00,
2013-11-30 17:55:00,52.9,39.4,30.10,North,11,0.0,1.0,60,0.00,,,0.00,VWS V14.00,2013-12-01 00:55:00,
2013-11-30 18:00:00,52.6,39.5,30.11,NNE,18,0.0,2.0,61,0.00,,,0.00,VWS V14.00,2013-12-01 01:00:00,
2013-11-30 18:05:00,52.3,39.3,30.11,NNE,18,0.0,1.0,61,0.00,,,0.00,VWS V14.00,2013-12-01 01:05:00,
2013-11-30 18:09:00,51.9,39.3,30.11,NNE,18,0.0,2.0,62,0.00,,,0.00,VWS V14.00,2013-12-01 01:09:00,
2013-11-30 18:10:00,58.7,40.6,30.10,NW,307,0.0,0.0,51,0.00,,,0.00,VWS V14.00,2013-12-01 01:10:00,
2013-11-30 18:14:00,51.5,39.3,30.11,NNE,18,0.0,1.0,63,0.00,,,0.00,VWS V14.00,2013-12-01 01:14:00,
2013-11-30 18:19:00,51.1,39.4,30.11,NNE,18,0.0,0.0,64,0.00,,,0.00,VWS V14.00,2013-12-01 01:19:00,
2013-11-30 18:20:00,56.9,40.4,30.10,North,355,0.0,1.0,54,0.00,,,0.00,VWS V14.00,2013-12-01 01:20:00,
2013-11-30 18:24:00,50.7,39.0,30.11,NNE,18,0.0,0.0,64,0.00,,,0.00,VWS V14.00,2013-12-01 01:24:00,
2013-11-30 18:29:00,50.4,38.7,30.11,NNE,18,0.0,0.0,64,0.00,,,0.00,VWS V14.00,2013-12-01 01:29:00,
2013-11-30 18:30:00,55.1,40.2,30.10,NE,36,0.0,3.0,57,0.00,,,0.00,VWS V14.00,2013-12-01 01:30:00,
2013-11-30 18:34:00,50.2,38.9,30.12,NNE,18,0.0,0.0,65,0.00,,,0.00,VWS V14.00,2013-12-01 01:34:00,
2013-11-30 18:39:00,49.9,38.6,30.12,NNE,18,0.0,2.0,65,0.00,,,0.00,VWS V14.00,2013-12-01 01:39:00,
2013-11-30 18:40:00,54.0,39.6,30.11,NNE,32,0.0,3.0,58,0.00,,,0.00,VWS V14.00,2013-12-01 01:40:00,
2013-11-30 18:43:00,49.9,38.6,30.13,NNE,18,1.0,2.0,65,0.00,,,0.00,VWS V14.00,2013-12-01 01:43:00,
2013-11-30 18:48:00,49.8,38.1,30.13,NNE,18,0.0,2.0,64,0.00,,,0.00,VWS V14.00,2013-12-01 01:48:00,
2013-11-30 18:50:00,53.4,39.9,30.10,North,11,1.0,2.0,60,0.00,,,0.00,VWS V14.00,2013-12-01 01:50:00,
2013-11-30 18:53:00,49.7,38.0,30.13,NNE,18,0.0,0.0,64,0.00,,,0.00,VWS V14.00,2013-12-01 01:53:00,
2013-11-30 18:58:00,49.6,38.3,30.13,NNE,18,0.0,1.0,65,0.00,,,0.00,VWS V14.00,2013-12-01 01:58:00,
2013-11-30 19:00:00,52.5,39.5,30.11,NNE,18,0.0,2.0,61,0.00,,,0.00,VWS V14.00,2013-12-01 02:00:00,
2013-11-30 19:03:00,49.5,38.2,30.13,NNE,18,0.0,1.0,65,0.00,,,0.00,VWS V14.00,2013-12-01 02:03:00,
2013-11-30 19:08:00,49.6,38.3,30.13,NNE,18,0.0,2.0,65,0.00,,,0.00,VWS V14.00,2013-12-01 02:08:00,
2013-11-30 19:10:00,51.9,39.3,30.11,NNE,18,0.0,2.0,62,0.00,,,0.00,VWS V14.00,2013-12-01 02:10:00,
2013-11-30 19:13:00,49.7,38.4,30.13,NNE,18,0.0,0.0,65,0.00,,,0.00,VWS V14.00,2013-12-01 02:13:00,
2013-11-30 19:18:00,49.7,38.4,30.13,NNE,18,0.0,2.0,65,0.00,,,0.00,VWS V14.00,2013-12-01 02:18:00,
2013-11-30 19:20:00,51.0,39.3,30.11,NNE,18,0.0,0.0,64,0.00,,,0.00,VWS V14.00,2013-12-01 02:20:00,
2013-11-30 19:23:00,49.8,38.5,30.14,NNE,22,2.0,3.0,65,0.00,,,0.00,VWS V14.00,2013-12-01 02:23:00,
2013-11-30 19:28:00,49.8,38.5,30.14,NNE,22,0.0,2.0,65,0.00,,,0.00,VWS V14.00,2013-12-01 02:28:00,
2013-11-30 19:30:00,50.3,39.0,30.12,NNE,18,0.0,0.0,65,0.00,,,0.00,VWS V14.00,2013-12-01 02:30:00,
2013-11-30 19:33:00,49.7,38.4,30.14,NNE,22,0.0,1.0,65,0.00,,,0.00,VWS V14.00,2013-12-01 02:33:00,
2013-11-30 19:38:00,49.6,37.9,30.14,NNE,22,0.0,0.0,64,0.00,,,0.00,VWS V14.00,2013-12-01 02:38:00,
2013-11-30 19:40:00,49.9,38.6,30.13,NNE,18,0.0,2.0,65,0.00,,,0.00,VWS V14.00,2013-12-01 02:40:00,
2013-11-30 19:43:00,49.5,37.8,30.14,NNE,22,0.0,1.0,64,0.00,,,0.00,VWS V14.00,2013-12-01 02:43:00,
2013-11-30 19:48:00,49.4,37.3,30.14,NNE,22,0.0,1.0,63,0.00,,,0.00,VWS V14.00,2013-12-01 02:48:00,
2013-11-30 19:50:00,49.7,38.0,30.13,NNE,18,0.0,0.0,64,0.00,,,0.00,VWS V14.00,2013-12-01 02:50:00,
2013-11-30 19:52:00,49.3,37.2,30.15,NNE,22,0.0,1.0,63,0.00,,,0.00,VWS V14.00,2013-12-01 02:52:00,
2013-11-30 19:57:00,49.3,37.7,30.15,NNE,22,0.0,0.0,64,0.00,,,0.00,VWS V14.00,2013-12-01 02:57:00,
2013-11-30 20:00:00,49.5,38.2,30.13,NNE,18,0.0,1.0,65,0.00,,,0.00,VWS V14.00,2013-12-01 03:00:00,
2013-11-30 20:02:00,49.2,38.0,30.15,NNE,22,0.0,0.0,65,0.00,,,0.00,VWS V14.00,2013-12-01 03:02:00,
2013-11-30 20:07:00,49.1,38.2,30.16,NNE,22,0.0,0.0,66,0.00,,,0.00,VWS V14.00,2013-12-01 03:07:00,
2013-11-30 20:10:00,49.6,38.3,30.13,NNE,18,0.0,1.0,65,0.00,,,0.00,VWS V14.00,2013-12-01 03:10:00,
2013-11-30 20:12:00,48.6,38.2,30.16,NNE,22,0.0,0.0,67,0.00,,,0.00,VWS V14.00,2013-12-01 03:12:00,
2013-11-30 20:17:00,48.2,38.2,30.16,NNE,22,0.0,1.0,68,0.00,,,0.00,VWS V14.00,2013-12-01 03:17:00,
2013-11-30 20:20:00,49.8,38.5,30.13,NNE,18,0.0,3.0,65,0.00,,,0.00,VWS V14.00,2013-12-01 03:20:00,
2013-11-30 20:22:00,47.6,38.0,30.16,NNE,22,0.0,2.0,69,0.00,,,0.00,VWS V14.00,2013-12-01 03:22:00,
2013-11-30 20:27:00,47.2,37.9,30.17,NNE,22,1.0,2.0,70,0.00,,,0.00,VWS V14.00,2013-12-01 03:27:00,
2013-11-30 20:30:00,49.7,38.4,30.14,NNE,22,0.0,2.0,65,0.00,,,0.00,VWS V14.00,2013-12-01 03:30:00,
2013-11-30 20:32:00,46.8,37.5,30.17,NNE,22,0.0,0.0,70,0.00,,,0.00,VWS V14.00,2013-12-01 03:32:00,
2013-11-30 20:37:00,46.4,37.2,30.17,NNE,22,0.0,1.0,70,0.00,,,0.00,VWS V14.00,2013-12-01 03:37:00,
2013-11-30 20:40:00,49.5,37.8,30.14,NNE,22,0.0,1.0,64,0.00,,,0.00,VWS V14.00,2013-12-01 03:40:00,
2013-11-30 20:42:00,46.2,37.0,30.17,NNE,22,1.0,1.0,70,0.00,,,0.00,VWS V14.00,2013-12-01 03:42:00,
2013-11-30 20:47:00,46.0,36.8,30.17,NNE,22,1.0,2.0,70,0.00,,,0.00,VWS V14.00,2013-12-01 03:47:00,
2013-11-30 20:50:00,49.4,37.3,30.14,NNE,22,0.0,1.0,63,0.00,,,0.00,VWS V14.00,2013-12-01 03:50:00,
2013-11-30 20:52:00,45.9,36.0,30.17,NNE,22,2.0,3.0,68,0.00,,,0.00,VWS V14.00,2013-12-01 03:52:00,
2013-11-30 20:57:00,46.3,35.6,30.18,NNE,22,1.0,3.0,66,0.00,,,0.00,VWS V14.00,2013-12-01 03:57:00,
2013-11-30 21:00:00,49.2,38.0,30.15,NNE,22,0.0,1.0,65,0.00,,,0.00,VWS V14.00,2013-12-01 04:00:00,
2013-11-30 21:02:00,46.7,35.6,30.17,NNE,23,4.0,4.0,65,0.00,,,0.00,VWS V14.00,2013-12-01 04:02:00,
2013-11-30 21:07:00,47.1,35.6,30.18,NNE,28,2.0,3.0,64,0.00,,,0.00,VWS V14.00,2013-12-01 04:07:00,
2013-11-30 21:10:00,48.8,38.3,30.16,NNE,22,0.0,0.0,67,0.00,,,0.00,VWS V14.00,2013-12-01 04:10:00,
2013-11-30 21:12:00,47.3,35.4,30.18,NNE,28,0.0,3.0,63,0.00,,,0.00,VWS V14.00,2013-12-01 04:12:00,
2013-11-30 21:17:00,47.3,35.4,30.18,NNE,28,1.0,2.0,63,0.00,,,0.00,VWS V14.00,2013-12-01 04:17:00,
2013-11-30 21:20:00,47.9,38.2,30.16,NNE,22,1.0,2.0,69,0.00,,,0.00,VWS V14.00,2013-12-01 04:20:00,
2013-11-30 21:22:00,47.1,35.2,30.18,NNE,28,2.0,3.0,63,0.00,,,0.00,VWS V14.00,2013-12-01 04:22:00,
2013-11-30 21:27:00,46.9,35.0,30.18,NNE,28,1.0,2.0,63,0.00,,,0.00,VWS V14.00,2013-12-01 04:27:00,
2013-11-30 21:30:00,47.0,37.7,30.17,NNE,22,0.0,2.0,70,0.00,,,0.00,VWS V14.00,2013-12-01 04:30:00,
2013-11-30 21:32:00,46.5,35.0,30.18,NNE,28,3.0,3.0,64,0.00,,,0.00,VWS V14.00,2013-12-01 04:32:00,
2013-11-30 21:37:00,46.1,35.0,30.19,NNE,28,1.0,4.0,65,0.00,,,0.00,VWS V14.00,2013-12-01 04:37:00,
2013-11-30 21:40:00,46.3,37.1,30.17,NNE,22,1.0,1.0,70,0.00,,,0.00,VWS V14.00,2013-12-01 04:40:00,
2013-11-30 21:42:00,46.0,34.9,30.19,NNE,28,0.0,2.0,65,0.00,,,0.00,VWS V14.00,2013-12-01 04:42:00,
2013-11-30 21:47:00,45.9,34.8,30.19,NE,36,0.0,1.0,65,0.00,,,0.00,VWS V14.00,2013-12-01 04:47:00,
2013-11-30 21:50:00,45.9,36.3,30.17,NNE,22,3.0,3.0,69,0.00,,,0.00,VWS V14.00,2013-12-01 04:50:00,
2013-11-30 21:52:00,45.8,35.1,30.20,NE,36,0.0,1.0,66,0.00,,,0.00,VWS V14.00,2013-12-01 04:52:00,
2013-11-30 21:57:00,45.7,35.4,30.20,NE,34,0.0,2.0,67,0.00,,,0.00,VWS V14.00,2013-12-01 04:57:00,
2013-11-30 22:00:00,46.5,35.8,30.18,NNE,22,2.0,4.0,66,0.00,,,0.00,VWS V14.00,2013-12-01 05:00:00,
2013-11-30 22:01:00,45.7,35.4,30.20,NE,35,0.0,0.0,67,0.00,,,0.00,VWS V14.00,2013-12-01 05:01:00,
2013-11-30 22:06:00,45.6,34.9,30.20,NE,34,0.0,1.0,66,0.00,,,0.00,VWS V14.00,2013-12-01 05:06:00,
2013-11-30 22:10:00,47.3,35.4,30.18,NNE,28,1.0,3.0,63,0.00,,,0.00,VWS V14.00,2013-12-01 05:10:00,
2013-11-30 22:11:00,45.6,34.5,30.20,NE,34,0.0,1.0,65,0.00,,,0.00,VWS V14.00,2013-12-01 05:11:00,
2013-11-30 22:16:00,45.6,34.1,30.20,NE,34,0.0,0.0,64,0.00,,,0.00,VWS V14.00,2013-12-01 05:16:00,
2013-11-30 22:20:00,47.2,35.3,30.18,NNE,28,1.0,3.0,63,0.00,,,0.00,VWS V14.00,2013-12-01 05:20:00,
2013-11-30 22:21:00,45.6,34.1,30.20,NE,35,0.0,1.0,64,0.00,,,0.00,VWS V14.00,2013-12-01 05:21:00,
2013-11-30 22:26:00,45.7,34.2,30.20,NE,35,0.0,1.0,64,0.00,,,0.00,VWS V14.00,2013-12-01 05:26:00,
2013-11-30 22:30:00,46.7,34.8,30.18,NNE,28,1.0,3.0,63,0.00,,,0.00,VWS V14.00,2013-12-01 05:30:00,
2013-11-30 22:31:00,46.0,34.1,30.21,NE,34,0.0,4.0,63,0.00,,,0.00,VWS V14.00,2013-12-01 05:31:00,
2013-11-30 22:36:00,46.1,33.8,30.21,NE,34,1.0,1.0,62,0.00,,,0.00,VWS V14.00,2013-12-01 05:36:00,
2013-11-30 22:40:00,46.0,34.5,30.19,NNE,28,0.0,2.0,64,0.00,,,0.00,VWS V14.00,2013-12-01 05:40:00,
2013-11-30 22:41:00,46.1,33.8,30.21,NE,34,0.0,0.0,62,0.00,,,0.00,VWS V14.00,2013-12-01 05:41:00,
2013-11-30 22:46:00,46.1,33.8,30.21,NNE,33,2.0,4.0,62,0.00,,,0.00,VWS V14.00,2013-12-01 05:46:00,
2013-11-30 22:50:00,45.8,35.1,30.20,NE,36,0.0,1.0,66,0.00,,,0.00,VWS V14.00,2013-12-01 05:50:00,
2013-11-30 22:51:00,46.1,33.8,30.21,NNE,33,1.0,2.0,62,0.00,,,0.00,VWS V14.00,2013-12-01 05:51:00,
2013-11-30 22:56:00,46.0,34.1,30.21,NNE,33,0.0,2.0,63,0.00,,,0.00,VWS V14.00,2013-12-01 05:56:00,
2013-11-30 23:00:00,45.7,35.4,30.20,NE,35,0.0,0.0,67,0.00,,,0.00,VWS V14.00,2013-12-01 06:00:00,
2013-11-30 23:01:00,45.8,33.9,30.21,NNE,33,0.0,3.0,63,0.00,,,0.00,VWS V14.00,2013-12-01 06:01:00,
2013-11-30 23:06:00,45.6,34.1,30.21,NNE,33,2.0,6.0,64,0.00,,,0.00,VWS V14.00,2013-12-01 06:06:00,
2013-11-30 23:10:00,45.6,34.5,30.20,NE,35,0.0,1.0,65,0.00,,,0.00,VWS V14.00,2013-12-01 06:10:00,
2013-11-30 23:11:00,45.4,34.0,30.21,NNE,33,0.0,1.0,64,0.00,,,0.00,VWS V14.00,2013-12-01 06:11:00,
2013-11-30 23:16:00,45.1,33.7,30.21,NNE,30,1.0,4.0,64,0.00,,,0.00,VWS V14.00,2013-12-01 06:16:00,
2013-11-30 23:20:00,45.6,34.1,30.20,NE,34,0.0,1.0,64,0.00,,,0.00,VWS V14.00,2013-12-01 06:20:00,
2013-11-30 23:21:00,45.0,34.0,30.21,North,11,1.0,6.0,65,0.00,,,0.00,VWS V14.00,2013-12-01 06:21:00,
2013-11-30 23:26:00,45.0,34.0,30.21,NNE,15,3.0,9.0,65,0.00,,,0.00,VWS V14.00,2013-12-01 06:26:00,
2013-11-30 23:30:00,45.9,34.0,30.21,NE,34,1.0,4.0,63,0.00,,,0.00,VWS V14.00,2013-12-01 06:30:00,
2013-11-30 23:31:00,45.0,34.0,30.21,NNE,22,4.0,5.0,65,0.00,,,0.00,VWS V14.00,2013-12-01 06:31:00,
2013-11-30 23:36:00,45.0,34.0,30.21,North,11,2.0,6.0,65,0.00,,,0.00,VWS V14.00,2013-12-01 06:36:00,
2013-11-30 23:40:00,46.1,33.8,30.21,NE,34,0.0,1.0,62,0.00,,,0.00,VWS V14.00,2013-12-01 06:40:00,
2013-11-30 23:41:00,44.7,34.0,30.21,NNE,20,3.0,4.0,66,0.00,,,0.00,VWS V14.00,2013-12-01 06:41:00,
2013-11-30 23:46:00,44.5,33.9,30.21,NNE,22,3.0,5.0,66,0.00,,,0.00,VWS V14.00,2013-12-01 06:46:00,
2013-11-30 23:50:00,46.1,33.8,30.21,NNE,33,2.0,2.0,62,0.00,,,0.00,VWS V14.00,2013-12-01 06:50:00,
2013-11-30 23:51:00,44.2,34.0,30.21,NNE,17,1.0,5.0,67,0.00,,,0.00,VWS V14.00,2013-12-01 06:51:00,
2013-11-30 23:56:00,44.0,34.1,30.21,NNE,26,5.0,6.0,68,0.00,,,0.00,VWS V14.00,2013-12-01 06:56:00,